Year,Month,Day,Hour,Minute,Value (Times are PST for temperature in C)
2016,03,31,00,00,8.70
2016,03,31,00,01,8.70
2016,03,31,00,02,8.70
2016,03,31,00,03,8.70
2016,03,31,00,04,8.70
2016,03,31,00,05,8.80
2016,03,31,00,06,8.80
2016,03,31,00,07,8.80
2016,03,31,00,08,8.80
2016,03,31,00,09,8.80
2016,03,31,00,10,8.90
2016,03,31,00,11,8.90
2016,03,31,00,12,8.90
2016,03,31,00,13,8.90
2016,03,31,00,14,8.90
2016,03,31,00,15,8.80
2016,03,31,00,16,8.80
2016,03,31,00,17,8.70
2016,03,31,00,18,8.70
2016,03,31,00,19,8.60
2016,03,31,00,20,8.60
2016,03,31,00,21,8.50
2016,03,31,00,22,8.50
2016,03,31,00,23,8.50
2016,03,31,00,24,8.40
2016,03,31,00,25,8.40
2016,03,31,00,26,8.40
2016,03,31,00,27,8.40
2016,03,31,00,28,8.40
2016,03,31,00,29,8.30
2016,03,31,00,30,8.30
2016,03,31,00,31,8.40
2016,03,31,00,32,8.30
2016,03,31,00,33,8.30
2016,03,31,00,34,8.30
2016,03,31,00,35,8.30
2016,03,31,00,36,8.30
2016,03,31,00,37,8.30
2016,03,31,00,38,8.30
2016,03,31,00,39,8.30
2016,03,31,00,40,8.30
2016,03,31,00,41,8.30
2016,03,31,00,42,8.30
2016,03,31,00,43,8.40
2016,03,31,00,44,8.40
2016,03,31,00,45,8.40
2016,03,31,00,46,8.40
2016,03,31,00,47,8.30
2016,03,31,00,48,8.40
2016,03,31,00,49,8.30
2016,03,31,00,50,8.30
2016,03,31,00,51,8.30
2016,03,31,00,52,8.30
2016,03,31,00,53,8.30
2016,03,31,00,54,8.30
2016,03,31,00,55,8.30
2016,03,31,00,56,8.30
2016,03,31,00,57,8.30
2016,03,31,00,58,8.30
2016,03,31,00,59,8.40
2016,03,31,01,00,8.40
2016,03,31,01,01,8.40
2016,03,31,01,02,8.40
2016,03,31,01,03,8.30
2016,03,31,01,04,8.30
2016,03,31,01,05,8.30
2016,03,31,01,06,8.20
2016,03,31,01,07,8.20
2016,03,31,01,08,8.20
2016,03,31,01,09,8.20
2016,03,31,01,10,8.20
2016,03,31,01,11,8.20
2016,03,31,01,12,8.20
2016,03,31,01,13,8.20
2016,03,31,01,14,8.30
2016,03,31,01,15,8.30
2016,03,31,01,16,8.20
2016,03,31,01,17,8.20
2016,03,31,01,18,8.20
2016,03,31,01,19,8.20
2016,03,31,01,20,8.20
2016,03,31,01,21,8.20
2016,03,31,01,22,8.20
2016,03,31,01,23,8.20
2016,03,31,01,24,8.20
2016,03,31,01,25,8.20
2016,03,31,01,26,8.20
2016,03,31,01,27,8.20
2016,03,31,01,28,8.10
2016,03,31,01,29,8.10
2016,03,31,01,30,8.10
2016,03,31,01,31,8.10
2016,03,31,01,32,8.10
2016,03,31,01,33,8.10
2016,03,31,01,34,8.10
2016,03,31,01,35,8.10
2016,03,31,01,36,8.10
2016,03,31,01,37,8.10
2016,03,31,01,38,8.10
2016,03,31,01,39,8.10
2016,03,31,01,40,8.00
2016,03,31,01,41,8.00
2016,03,31,01,42,7.90
2016,03,31,01,43,7.90
2016,03,31,01,44,7.80
2016,03,31,01,45,7.80
2016,03,31,01,46,7.80
2016,03,31,01,47,7.90
2016,03,31,01,48,7.90
2016,03,31,01,49,8.00
2016,03,31,01,50,8.10
2016,03,31,01,51,8.10
2016,03,31,01,52,8.10
2016,03,31,01,53,8.10
2016,03,31,01,54,8.10
2016,03,31,01,55,8.00
2016,03,31,01,56,8.10
2016,03,31,01,57,8.10
2016,03,31,01,58,8.00
2016,03,31,01,59,8.00
2016,03,31,02,00,8.00
2016,03,31,02,01,8.00
2016,03,31,02,02,8.00
2016,03,31,02,03,8.00
2016,03,31,02,04,8.00
2016,03,31,02,05,8.00
2016,03,31,02,06,8.00
2016,03,31,02,07,8.00
2016,03,31,02,08,8.00
2016,03,31,02,09,8.00
2016,03,31,02,10,8.10
2016,03,31,02,11,8.10
2016,03,31,02,12,8.10
2016,03,31,02,13,8.10
2016,03,31,02,14,8.10
2016,03,31,02,15,8.10
2016,03,31,02,16,8.10
2016,03,31,02,17,8.00
2016,03,31,02,18,8.00
2016,03,31,02,19,7.90
2016,03,31,02,20,7.90
2016,03,31,02,21,7.90
2016,03,31,02,22,7.90
2016,03,31,02,23,7.90
2016,03,31,02,24,8.00
2016,03,31,02,25,8.00
2016,03,31,02,26,8.00
2016,03,31,02,27,8.00
2016,03,31,02,28,8.00
2016,03,31,02,29,8.00
2016,03,31,02,30,8.00
2016,03,31,02,31,8.00
2016,03,31,02,32,8.10
2016,03,31,02,33,8.10
2016,03,31,02,34,8.10
2016,03,31,02,35,8.10
2016,03,31,02,36,8.10
2016,03,31,02,37,8.00
2016,03,31,02,38,8.00
2016,03,31,02,39,8.00
2016,03,31,02,40,7.90
2016,03,31,02,41,7.90
2016,03,31,02,42,7.90
2016,03,31,02,43,7.90
2016,03,31,02,44,7.90
2016,03,31,02,45,7.90
2016,03,31,02,46,7.90
2016,03,31,02,47,7.90
2016,03,31,02,48,7.90
2016,03,31,02,49,7.90
2016,03,31,02,50,7.90
2016,03,31,02,51,7.90
2016,03,31,02,52,7.90
2016,03,31,02,53,7.90
2016,03,31,02,54,7.90
2016,03,31,02,55,7.90
2016,03,31,02,56,7.90
2016,03,31,02,57,7.90
2016,03,31,02,58,7.90
2016,03,31,02,59,7.80
2016,03,31,03,00,7.80
2016,03,31,03,01,7.80
2016,03,31,03,02,7.80
2016,03,31,03,03,7.80
2016,03,31,03,04,7.80
2016,03,31,03,05,7.80
2016,03,31,03,06,7.80
2016,03,31,03,07,7.70
2016,03,31,03,08,7.70
2016,03,31,03,09,7.70
2016,03,31,03,10,7.70
2016,03,31,03,11,7.70
2016,03,31,03,12,7.60
2016,03,31,03,13,7.60
2016,03,31,03,14,7.60
2016,03,31,03,15,7.50
2016,03,31,03,16,7.50
2016,03,31,03,17,7.40
2016,03,31,03,18,7.40
2016,03,31,03,19,7.40
2016,03,31,03,20,7.40
2016,03,31,03,21,7.40
2016,03,31,03,22,7.40
2016,03,31,03,23,7.40
2016,03,31,03,24,7.40
2016,03,31,03,25,7.40
2016,03,31,03,26,7.40
2016,03,31,03,27,7.40
2016,03,31,03,28,7.40
2016,03,31,03,29,7.40
2016,03,31,03,30,7.40
2016,03,31,03,31,7.40
2016,03,31,03,32,7.40
2016,03,31,03,33,7.40
2016,03,31,03,34,7.40
2016,03,31,03,35,7.40
2016,03,31,03,36,7.40
2016,03,31,03,37,7.40
2016,03,31,03,38,7.50
2016,03,31,03,39,7.50
2016,03,31,03,40,7.50
2016,03,31,03,41,7.50
2016,03,31,03,42,7.50
2016,03,31,03,43,7.50
2016,03,31,03,44,7.50
2016,03,31,03,45,7.50
2016,03,31,03,46,7.50
2016,03,31,03,47,7.50
2016,03,31,03,48,7.40
2016,03,31,03,49,7.40
2016,03,31,03,50,7.40
2016,03,31,03,51,7.40
2016,03,31,03,52,7.40
2016,03,31,03,53,7.40
2016,03,31,03,54,7.40
2016,03,31,03,55,7.40
2016,03,31,03,56,7.30
2016,03,31,03,57,7.30
2016,03,31,03,58,7.30
2016,03,31,03,59,7.30
2016,03,31,04,00,7.30
2016,03,31,04,01,7.30
2016,03,31,04,02,7.30
2016,03,31,04,03,7.30
2016,03,31,04,04,7.30
2016,03,31,04,05,7.30
2016,03,31,04,06,7.30
2016,03,31,04,07,7.30
2016,03,31,04,08,7.30
2016,03,31,04,09,7.20
2016,03,31,04,10,7.20
2016,03,31,04,11,7.20
2016,03,31,04,12,7.20
2016,03,31,04,13,7.20
2016,03,31,04,14,7.20
2016,03,31,04,15,7.20
2016,03,31,04,16,7.20
2016,03,31,04,17,7.20
2016,03,31,04,18,7.10
2016,03,31,04,19,7.10
2016,03,31,04,20,7.10
2016,03,31,04,21,7.10
2016,03,31,04,22,7.00
2016,03,31,04,23,7.00
2016,03,31,04,24,7.00
2016,03,31,04,25,7.10
2016,03,31,04,26,7.10
2016,03,31,04,27,7.10
2016,03,31,04,28,7.20
2016,03,31,04,29,7.20
2016,03,31,04,30,7.20
2016,03,31,04,31,7.20
2016,03,31,04,32,7.10
2016,03,31,04,33,7.10
2016,03,31,04,34,7.10
2016,03,31,04,35,7.10
2016,03,31,04,36,7.10
2016,03,31,04,37,7.10
2016,03,31,04,38,7.10
2016,03,31,04,39,7.10
2016,03,31,04,40,7.10
2016,03,31,04,41,7.00
2016,03,31,04,42,6.90
2016,03,31,04,43,6.80
2016,03,31,04,44,6.80
2016,03,31,04,45,6.80
2016,03,31,04,46,6.80
2016,03,31,04,47,6.80
2016,03,31,04,48,6.80
2016,03,31,04,49,6.80
2016,03,31,04,50,6.80
2016,03,31,04,51,6.80
2016,03,31,04,52,6.80
2016,03,31,04,53,6.70
2016,03,31,04,54,6.70
2016,03,31,04,55,6.70
2016,03,31,04,56,6.70
2016,03,31,04,57,6.70
2016,03,31,04,58,6.70
2016,03,31,04,59,6.80
2016,03,31,05,00,6.80
2016,03,31,05,01,6.80
2016,03,31,05,02,6.80
2016,03,31,05,03,6.80
2016,03,31,05,04,6.90
2016,03,31,05,05,6.90
2016,03,31,05,06,7.00
2016,03,31,05,07,7.00
2016,03,31,05,08,7.00
2016,03,31,05,09,7.00
2016,03,31,05,10,7.10
2016,03,31,05,11,7.10
2016,03,31,05,12,7.10
2016,03,31,05,13,7.10
2016,03,31,05,14,7.10
2016,03,31,05,15,7.00
2016,03,31,05,16,7.00
2016,03,31,05,17,7.00
2016,03,31,05,18,7.00
2016,03,31,05,19,7.00
2016,03,31,05,20,7.00
2016,03,31,05,21,7.00
2016,03,31,05,22,7.00
2016,03,31,05,23,6.90
2016,03,31,05,24,6.90
2016,03,31,05,25,6.90
2016,03,31,05,26,6.90
2016,03,31,05,27,6.90
2016,03,31,05,28,6.90
2016,03,31,05,29,6.90
2016,03,31,05,30,6.90
2016,03,31,05,31,6.90
2016,03,31,05,32,6.80
2016,03,31,05,33,6.80
2016,03,31,05,34,6.80
2016,03,31,05,35,6.80
2016,03,31,05,36,6.80
2016,03,31,05,37,6.80
2016,03,31,05,38,6.70
2016,03,31,05,39,6.70
2016,03,31,05,40,6.70
2016,03,31,05,41,6.70
2016,03,31,05,42,6.70
2016,03,31,05,43,6.70
2016,03,31,05,44,6.70
2016,03,31,05,45,6.70
2016,03,31,05,46,6.70
2016,03,31,05,47,6.60
2016,03,31,05,48,6.60
2016,03,31,05,49,6.60
2016,03,31,05,50,6.60
2016,03,31,05,51,6.60
2016,03,31,05,52,6.60
2016,03,31,05,53,6.60
2016,03,31,05,54,6.60
2016,03,31,05,55,6.60
2016,03,31,05,56,6.60
2016,03,31,05,57,6.50
2016,03,31,05,58,6.50
2016,03,31,05,59,6.50
2016,03,31,06,00,6.50
2016,03,31,06,01,6.50
2016,03,31,06,02,6.50
2016,03,31,06,03,6.40
2016,03,31,06,04,6.40
2016,03,31,06,05,6.40
2016,03,31,06,06,6.40
2016,03,31,06,07,6.40
2016,03,31,06,08,6.40
2016,03,31,06,09,6.40
2016,03,31,06,10,6.40
2016,03,31,06,11,6.40
2016,03,31,06,12,6.40
2016,03,31,06,13,6.40
2016,03,31,06,14,6.40
2016,03,31,06,15,6.40
2016,03,31,06,16,6.30
2016,03,31,06,17,6.30
2016,03,31,06,18,6.30
2016,03,31,06,19,6.30
2016,03,31,06,20,6.30
2016,03,31,06,21,6.30
2016,03,31,06,22,6.30
2016,03,31,06,23,6.30
2016,03,31,06,24,6.30
2016,03,31,06,25,6.30
2016,03,31,06,26,6.30
2016,03,31,06,27,6.30
2016,03,31,06,28,6.20
2016,03,31,06,29,6.20
2016,03,31,06,30,6.20
2016,03,31,06,31,6.20
2016,03,31,06,32,6.20
2016,03,31,06,33,6.20
2016,03,31,06,34,6.20
2016,03,31,06,35,6.20
2016,03,31,06,36,6.20
2016,03,31,06,37,6.20
2016,03,31,06,38,6.20
2016,03,31,06,39,6.20
2016,03,31,06,40,6.20
2016,03,31,06,41,6.20
2016,03,31,06,42,6.20
2016,03,31,06,43,6.20
2016,03,31,06,44,6.20
2016,03,31,06,45,6.20
2016,03,31,06,46,6.20
2016,03,31,06,47,6.20
2016,03,31,06,48,6.10
2016,03,31,06,49,6.10
2016,03,31,06,50,6.10
2016,03,31,06,51,6.10
2016,03,31,06,52,6.00
2016,03,31,06,53,6.00
2016,03,31,06,54,6.00
2016,03,31,06,55,5.90
2016,03,31,06,56,5.90
2016,03,31,06,57,5.90
2016,03,31,06,58,5.90
2016,03,31,06,59,5.90
2016,03,31,07,00,5.90
2016,03,31,07,01,5.90
2016,03,31,07,02,5.90
2016,03,31,07,03,5.90
2016,03,31,07,04,5.90
2016,03,31,07,05,5.90
2016,03,31,07,06,5.90
2016,03,31,07,07,5.90
2016,03,31,07,08,5.90
2016,03,31,07,09,5.90
2016,03,31,07,10,5.90
2016,03,31,07,11,5.90
2016,03,31,07,12,5.90
2016,03,31,07,13,5.90
2016,03,31,07,14,5.90
2016,03,31,07,15,5.90
2016,03,31,07,16,5.90
2016,03,31,07,17,5.90
2016,03,31,07,18,5.90
2016,03,31,07,19,5.90
2016,03,31,07,20,5.80
2016,03,31,07,21,5.80
2016,03,31,07,22,5.80
2016,03,31,07,23,5.80
2016,03,31,07,24,5.80
2016,03,31,07,25,5.80
2016,03,31,07,26,5.70
2016,03,31,07,27,5.70
2016,03,31,07,28,5.70
2016,03,31,07,29,5.60
2016,03,31,07,30,5.60
2016,03,31,07,31,5.50
2016,03,31,07,32,5.50
2016,03,31,07,33,5.50
2016,03,31,07,34,5.40
2016,03,31,07,35,5.40
2016,03,31,07,36,5.40
2016,03,31,07,37,5.40
2016,03,31,07,38,5.40
2016,03,31,07,39,5.50
2016,03,31,07,40,5.50
2016,03,31,07,41,5.50
2016,03,31,07,42,5.50
2016,03,31,07,43,5.60
2016,03,31,07,44,5.60
2016,03,31,07,45,5.70
2016,03,31,07,46,5.70
2016,03,31,07,47,5.70
2016,03,31,07,48,5.80
2016,03,31,07,49,5.80
2016,03,31,07,50,5.80
2016,03,31,07,51,5.80
2016,03,31,07,52,5.90
2016,03,31,07,53,5.90
2016,03,31,07,54,5.90
2016,03,31,07,55,5.90
2016,03,31,07,56,5.90
2016,03,31,07,57,5.90
2016,03,31,07,58,6.00
2016,03,31,07,59,6.00
2016,03,31,08,00,6.00
2016,03,31,08,01,6.00
2016,03,31,08,02,6.00
2016,03,31,08,03,6.00
2016,03,31,08,04,6.10
2016,03,31,08,05,6.10
2016,03,31,08,06,6.10
2016,03,31,08,07,6.10
2016,03,31,08,08,6.10
2016,03,31,08,09,6.10
2016,03,31,08,10,6.10
2016,03,31,08,11,6.10
2016,03,31,08,12,6.10
2016,03,31,08,13,6.10
2016,03,31,08,14,6.10
2016,03,31,08,15,6.10
2016,03,31,08,16,6.10
2016,03,31,08,17,6.20
2016,03,31,08,18,6.20
2016,03,31,08,19,6.20
2016,03,31,08,20,6.30
2016,03,31,08,21,6.30
2016,03,31,08,22,6.30
2016,03,31,08,23,6.40
2016,03,31,08,24,6.40
2016,03,31,08,25,6.40
2016,03,31,08,26,6.40
2016,03,31,08,27,6.50
2016,03,31,08,28,6.50
2016,03,31,08,29,6.50
2016,03,31,08,30,6.60
2016,03,31,08,31,6.60
2016,03,31,08,32,6.60
2016,03,31,08,33,6.60
2016,03,31,08,34,6.70
2016,03,31,08,35,6.70
2016,03,31,08,36,6.70
2016,03,31,08,37,6.70
2016,03,31,08,38,6.80
2016,03,31,08,39,6.80
2016,03,31,08,40,6.80
2016,03,31,08,41,6.90
2016,03,31,08,42,6.90
2016,03,31,08,43,7.00
2016,03,31,08,44,7.10
2016,03,31,08,45,7.10
2016,03,31,08,46,7.10
2016,03,31,08,47,7.20
2016,03,31,08,48,7.20
2016,03,31,08,49,7.30
2016,03,31,08,50,7.30
2016,03,31,08,51,7.40
2016,03,31,08,52,7.50
2016,03,31,08,53,7.60
2016,03,31,08,54,7.70
2016,03,31,08,55,7.70
2016,03,31,08,56,7.80
2016,03,31,08,57,7.90
2016,03,31,08,58,8.00
2016,03,31,08,59,8.10
2016,03,31,09,00,8.20
2016,03,31,09,01,8.20
2016,03,31,09,02,8.30
2016,03,31,09,03,8.30
2016,03,31,09,04,8.30
2016,03,31,09,05,8.40
2016,03,31,09,06,8.40
2016,03,31,09,07,8.40
2016,03,31,09,08,8.50
2016,03,31,09,09,8.50
2016,03,31,09,10,8.60
2016,03,31,09,11,8.60
2016,03,31,09,12,8.70
2016,03,31,09,13,8.70
2016,03,31,09,14,8.70
2016,03,31,09,15,8.70
2016,03,31,09,16,8.80
2016,03,31,09,17,8.80
2016,03,31,09,18,8.80
2016,03,31,09,19,8.90
2016,03,31,09,20,8.90
2016,03,31,09,21,8.90
2016,03,31,09,22,8.90
2016,03,31,09,23,8.90
2016,03,31,09,24,8.80
2016,03,31,09,25,8.90
2016,03,31,09,26,8.90
2016,03,31,09,27,8.90
2016,03,31,09,28,8.90
2016,03,31,09,29,9.00
2016,03,31,09,30,9.00
2016,03,31,09,31,9.10
2016,03,31,09,32,9.10
2016,03,31,09,33,9.10
2016,03,31,09,34,9.10
2016,03,31,09,35,9.20
2016,03,31,09,36,9.30
2016,03,31,09,37,9.40
2016,03,31,09,38,9.40
2016,03,31,09,39,9.50
2016,03,31,09,40,9.50
2016,03,31,09,41,9.60
2016,03,31,09,42,9.70
2016,03,31,09,43,9.80
2016,03,31,09,44,9.80
2016,03,31,09,45,9.90
2016,03,31,09,46,10.00
2016,03,31,09,47,10.10
2016,03,31,09,48,10.10
2016,03,31,09,49,10.20
2016,03,31,09,50,10.20
2016,03,31,09,51,10.30
2016,03,31,09,52,10.30
2016,03,31,09,53,10.40
2016,03,31,09,54,10.50
2016,03,31,09,55,10.60
2016,03,31,09,56,10.70
2016,03,31,09,57,10.70
2016,03,31,09,58,10.80
2016,03,31,09,59,10.90
2016,03,31,10,00,11.00
2016,03,31,10,01,11.20
2016,03,31,10,02,11.20
2016,03,31,10,03,11.40
2016,03,31,10,04,11.40
2016,03,31,10,05,11.50
2016,03,31,10,06,11.60
2016,03,31,10,07,11.60
2016,03,31,10,08,11.70
2016,03,31,10,09,11.90
2016,03,31,10,10,12.00
2016,03,31,10,11,12.10
2016,03,31,10,12,12.20
2016,03,31,10,13,12.30
2016,03,31,10,14,12.30
2016,03,31,10,15,12.50
2016,03,31,10,16,12.50
2016,03,31,10,17,12.60
2016,03,31,10,18,12.70
2016,03,31,10,19,12.70
2016,03,31,10,20,12.80
2016,03,31,10,21,12.80
2016,03,31,10,22,12.80
2016,03,31,10,23,12.90
2016,03,31,10,24,12.90
2016,03,31,10,25,13.00
2016,03,31,10,26,13.10
2016,03,31,10,27,13.10
2016,03,31,10,28,13.20
2016,03,31,10,29,13.20
2016,03,31,10,30,13.30
2016,03,31,10,31,13.30
2016,03,31,10,32,13.40
2016,03,31,10,33,13.40
2016,03,31,10,34,13.40
2016,03,31,10,35,13.50
2016,03,31,10,36,13.50
2016,03,31,10,37,13.60
2016,03,31,10,38,13.70
2016,03,31,10,39,13.80
2016,03,31,10,40,13.80
2016,03,31,10,41,13.90
2016,03,31,10,42,13.90
2016,03,31,10,43,13.90
2016,03,31,10,44,14.00
2016,03,31,10,45,14.00
2016,03,31,10,46,14.00
2016,03,31,10,47,14.00
2016,03,31,10,48,14.10
2016,03,31,10,49,14.10
2016,03,31,10,50,14.20
2016,03,31,10,51,14.30
2016,03,31,10,52,14.40
2016,03,31,10,53,14.40
2016,03,31,10,54,14.40
2016,03,31,10,55,14.50
2016,03,31,10,56,14.50
2016,03,31,10,57,14.50
2016,03,31,10,58,14.50
2016,03,31,10,59,14.50
2016,03,31,11,00,14.50
2016,03,31,11,01,14.60
2016,03,31,11,02,14.70
2016,03,31,11,03,14.80
2016,03,31,11,04,14.80
2016,03,31,11,05,14.80
2016,03,31,11,06,14.90
2016,03,31,11,07,14.90
2016,03,31,11,08,14.90
2016,03,31,11,09,14.90
2016,03,31,11,10,14.80
2016,03,31,11,11,14.80
2016,03,31,11,12,14.80
2016,03,31,11,13,14.90
2016,03,31,11,14,14.90
2016,03,31,11,15,14.90
2016,03,31,11,16,14.90
2016,03,31,11,17,14.90
2016,03,31,11,18,14.90
2016,03,31,11,19,14.80
2016,03,31,11,20,14.80
2016,03,31,11,21,14.80
2016,03,31,11,22,14.80
2016,03,31,11,23,14.80
2016,03,31,11,24,14.80
2016,03,31,11,25,14.70
2016,03,31,11,26,14.70
2016,03,31,11,27,14.60
2016,03,31,11,28,14.60
2016,03,31,11,29,14.60
2016,03,31,11,30,14.50
2016,03,31,11,31,14.50
2016,03,31,11,32,14.40
2016,03,31,11,33,14.40
2016,03,31,11,34,14.30
2016,03,31,11,35,14.30
2016,03,31,11,36,14.20
2016,03,31,11,37,14.20
2016,03,31,11,38,14.20
2016,03,31,11,39,14.20
2016,03,31,11,40,14.20
2016,03,31,11,41,14.10
2016,03,31,11,42,14.20
2016,03,31,11,43,14.10
2016,03,31,11,44,14.10
2016,03,31,11,45,14.10
2016,03,31,11,46,14.20
2016,03,31,11,47,14.20
2016,03,31,11,48,14.20
2016,03,31,11,49,14.20
2016,03,31,11,50,14.20
2016,03,31,11,51,14.20
2016,03,31,11,52,14.20
2016,03,31,11,53,14.30
2016,03,31,11,54,14.30
2016,03,31,11,55,14.40
2016,03,31,11,56,14.40
2016,03,31,11,57,14.40
2016,03,31,11,58,14.40
2016,03,31,11,59,14.40
2016,03,31,12,00,14.40
2016,03,31,12,01,14.40
2016,03,31,12,02,14.40
2016,03,31,12,03,14.40
2016,03,31,12,04,14.40
2016,03,31,12,05,14.50
2016,03,31,12,06,14.60
2016,03,31,12,07,14.60
2016,03,31,12,08,14.70
2016,03,31,12,09,14.70
2016,03,31,12,10,14.80
2016,03,31,12,11,14.80
2016,03,31,12,12,14.80
2016,03,31,12,13,14.90
2016,03,31,12,14,15.00
2016,03,31,12,15,15.00
2016,03,31,12,16,15.10
2016,03,31,12,17,15.10
2016,03,31,12,18,15.10
2016,03,31,12,19,15.00
2016,03,31,12,20,15.00
2016,03,31,12,21,14.90
2016,03,31,12,22,14.90
2016,03,31,12,23,14.90
2016,03,31,12,24,14.80
2016,03,31,12,25,14.80
2016,03,31,12,26,14.80
2016,03,31,12,27,14.80
2016,03,31,12,28,14.80
2016,03,31,12,29,14.80
2016,03,31,12,30,14.70
2016,03,31,12,31,14.70
2016,03,31,12,32,14.70
2016,03,31,12,33,14.70
2016,03,31,12,34,14.70
2016,03,31,12,35,14.70
2016,03,31,12,36,14.80
2016,03,31,12,37,14.80
2016,03,31,12,38,14.90
2016,03,31,12,39,15.00
2016,03,31,12,40,15.10
2016,03,31,12,41,15.20
2016,03,31,12,42,15.30
2016,03,31,12,43,15.40
2016,03,31,12,44,15.50
2016,03,31,12,45,15.50
2016,03,31,12,46,15.60
2016,03,31,12,47,15.60
2016,03,31,12,48,15.70
2016,03,31,12,49,15.80
2016,03,31,12,50,15.90
2016,03,31,12,51,15.90
2016,03,31,12,52,16.00
2016,03,31,12,53,16.10
2016,03,31,12,54,16.10
2016,03,31,12,55,16.10
2016,03,31,12,56,16.10
2016,03,31,12,57,16.10
2016,03,31,12,58,16.10
2016,03,31,12,59,16.20
2016,03,31,13,00,16.30
2016,03,31,13,01,16.40
2016,03,31,13,02,16.50
2016,03,31,13,03,16.60
2016,03,31,13,04,16.70
2016,03,31,13,05,16.80
2016,03,31,13,06,16.90
2016,03,31,13,07,16.90
2016,03,31,13,08,16.90
2016,03,31,13,09,16.80
2016,03,31,13,10,16.70
2016,03,31,13,11,16.60
2016,03,31,13,12,16.50
2016,03,31,13,13,16.40
2016,03,31,13,14,16.40
2016,03,31,13,15,16.30
2016,03,31,13,16,16.20
2016,03,31,13,17,16.20
2016,03,31,13,18,16.10
2016,03,31,13,19,16.10
2016,03,31,13,20,16.10
2016,03,31,13,21,16.10
2016,03,31,13,22,16.10
2016,03,31,13,23,16.10
2016,03,31,13,24,16.10
2016,03,31,13,25,16.10
2016,03,31,13,26,16.20
2016,03,31,13,27,16.40
2016,03,31,13,28,16.50
2016,03,31,13,29,16.70
2016,03,31,13,30,16.80
2016,03,31,13,31,17.00
2016,03,31,13,32,17.10
2016,03,31,13,33,17.20
2016,03,31,13,34,17.30
2016,03,31,13,35,17.40
2016,03,31,13,36,17.40
2016,03,31,13,37,17.50
2016,03,31,13,38,17.60
2016,03,31,13,39,17.70
2016,03,31,13,40,17.70
2016,03,31,13,41,17.80
2016,03,31,13,42,17.80
2016,03,31,13,43,17.80
2016,03,31,13,44,17.80
2016,03,31,13,45,17.80
2016,03,31,13,46,17.80
2016,03,31,13,47,17.80
2016,03,31,13,48,17.80
2016,03,31,13,49,17.80
2016,03,31,13,50,17.80
2016,03,31,13,51,17.80
2016,03,31,13,52,17.70
2016,03,31,13,53,17.70
2016,03,31,13,54,17.70
2016,03,31,13,55,17.60
2016,03,31,13,56,17.60
2016,03,31,13,57,17.60
2016,03,31,13,58,17.50
2016,03,31,13,59,17.50
2016,03,31,14,00,17.50
2016,03,31,14,01,17.60
2016,03,31,14,02,17.60
2016,03,31,14,03,17.60
2016,03,31,14,04,17.70
2016,03,31,14,05,17.70
2016,03,31,14,06,17.80
2016,03,31,14,07,17.80
2016,03,31,14,08,17.80
2016,03,31,14,09,17.80
2016,03,31,14,10,17.90
2016,03,31,14,11,18.00
2016,03,31,14,12,18.10
2016,03,31,14,13,18.20
2016,03,31,14,14,18.30
2016,03,31,14,15,18.40
2016,03,31,14,16,18.50
2016,03,31,14,17,18.70
2016,03,31,14,18,18.70
2016,03,31,14,19,18.80
2016,03,31,14,20,18.90
2016,03,31,14,21,19.00
2016,03,31,14,22,19.00
2016,03,31,14,23,19.10
2016,03,31,14,24,19.20
2016,03,31,14,25,19.20
2016,03,31,14,26,19.20
2016,03,31,14,27,19.30
2016,03,31,14,28,19.40
2016,03,31,14,29,19.40
2016,03,31,14,30,19.50
2016,03,31,14,31,19.60
2016,03,31,14,32,19.60
2016,03,31,14,33,19.60
2016,03,31,14,34,19.60
2016,03,31,14,35,19.50
2016,03,31,14,36,19.50
2016,03,31,14,37,19.60
2016,03,31,14,38,19.60
2016,03,31,14,39,19.60
2016,03,31,14,40,19.60
2016,03,31,14,41,19.60
2016,03,31,14,42,19.60
2016,03,31,14,43,19.70
2016,03,31,14,44,19.80
2016,03,31,14,45,19.80
2016,03,31,14,46,19.90
2016,03,31,14,47,20.00
2016,03,31,14,48,20.00
2016,03,31,14,49,20.00
2016,03,31,14,50,20.00
2016,03,31,14,51,20.00
2016,03,31,14,52,20.00
2016,03,31,14,53,20.00
2016,03,31,14,54,20.10
2016,03,31,14,55,20.10
2016,03,31,14,56,20.10
2016,03,31,14,57,20.20
2016,03,31,14,58,20.20
2016,03,31,14,59,20.30
2016,03,31,15,00,20.20
2016,03,31,15,01,20.30
2016,03,31,15,02,20.30
2016,03,31,15,03,20.40
2016,03,31,15,04,20.40
2016,03,31,15,05,20.40
2016,03,31,15,06,20.40
2016,03,31,15,07,20.30
2016,03,31,15,08,20.30
2016,03,31,15,09,20.20
2016,03,31,15,10,20.20
2016,03,31,15,11,20.30
2016,03,31,15,12,20.30
2016,03,31,15,13,20.40
2016,03,31,15,14,20.50
2016,03,31,15,15,20.50
2016,03,31,15,16,20.60
2016,03,31,15,17,20.70
2016,03,31,15,18,20.80
2016,03,31,15,19,20.90
2016,03,31,15,20,21.00
2016,03,31,15,21,21.00
2016,03,31,15,22,21.00
2016,03,31,15,23,21.00
2016,03,31,15,24,20.90
2016,03,31,15,25,20.90
2016,03,31,15,26,20.80
2016,03,31,15,27,20.90
2016,03,31,15,28,20.90
2016,03,31,15,29,21.00
2016,03,31,15,30,21.00
2016,03,31,15,31,21.00
2016,03,31,15,32,21.00
2016,03,31,15,33,21.10
2016,03,31,15,34,21.00
2016,03,31,15,35,21.00
2016,03,31,15,36,21.00
2016,03,31,15,37,20.90
2016,03,31,15,38,20.90
2016,03,31,15,39,20.90
2016,03,31,15,40,20.90
2016,03,31,15,41,21.00
2016,03,31,15,42,21.00
2016,03,31,15,43,21.10
2016,03,31,15,44,21.20
2016,03,31,15,45,21.30
2016,03,31,15,46,21.40
2016,03,31,15,47,21.50
2016,03,31,15,48,21.50
2016,03,31,15,49,21.40
2016,03,31,15,50,21.40
2016,03,31,15,51,21.50
2016,03,31,15,52,21.50
2016,03,31,15,53,21.50
2016,03,31,15,54,21.50
2016,03,31,15,55,21.50
2016,03,31,15,56,21.60
2016,03,31,15,57,21.60
2016,03,31,15,58,21.60
2016,03,31,15,59,21.60
2016,03,31,16,00,21.70
2016,03,31,16,01,21.70
2016,03,31,16,02,21.70
2016,03,31,16,03,21.70
2016,03,31,16,04,21.80
2016,03,31,16,05,21.90
2016,03,31,16,06,21.90
2016,03,31,16,07,21.80
2016,03,31,16,08,21.80
2016,03,31,16,09,21.70
2016,03,31,16,10,21.70
2016,03,31,16,11,21.70
2016,03,31,16,12,21.70
2016,03,31,16,13,21.70
2016,03,31,16,14,21.70
2016,03,31,16,15,21.70
2016,03,31,16,16,21.70
2016,03,31,16,17,21.70
2016,03,31,16,18,21.70
2016,03,31,16,19,21.70
2016,03,31,16,20,21.70
2016,03,31,16,21,21.70
2016,03,31,16,22,21.70
2016,03,31,16,23,21.70
2016,03,31,16,24,21.70
2016,03,31,16,25,21.70
2016,03,31,16,26,21.70
2016,03,31,16,27,21.70
2016,03,31,16,28,21.70
2016,03,31,16,29,21.70
2016,03,31,16,30,21.70
2016,03,31,16,31,21.70
2016,03,31,16,32,21.70
2016,03,31,16,33,21.60
2016,03,31,16,34,21.60
2016,03,31,16,35,21.60
2016,03,31,16,36,21.60
2016,03,31,16,37,21.60
2016,03,31,16,38,21.70
2016,03,31,16,39,21.70
2016,03,31,16,40,21.70
2016,03,31,16,41,21.60
2016,03,31,16,42,21.60
2016,03,31,16,43,21.50
2016,03,31,16,44,21.40
2016,03,31,16,45,21.30
2016,03,31,16,46,21.20
2016,03,31,16,47,21.10
2016,03,31,16,48,21.10
2016,03,31,16,49,21.00
2016,03,31,16,50,20.90
2016,03,31,16,51,20.90
2016,03,31,16,52,20.80
2016,03,31,16,53,20.70
2016,03,31,16,54,20.70
2016,03,31,16,55,20.70
2016,03,31,16,56,20.60
2016,03,31,16,57,20.40
2016,03,31,16,58,20.20
2016,03,31,16,59,20.10
2016,03,31,17,00,20.20
2016,03,31,17,01,20.20
2016,03,31,17,02,20.20
2016,03,31,17,03,20.20
2016,03,31,17,04,20.10
2016,03,31,17,05,20.00
2016,03,31,17,06,19.90
2016,03,31,17,07,19.80
2016,03,31,17,08,19.80
2016,03,31,17,09,19.70
2016,03,31,17,10,19.60
2016,03,31,17,11,19.60
2016,03,31,17,12,19.60
2016,03,31,17,13,19.40
2016,03,31,17,14,19.20
2016,03,31,17,15,19.20
2016,03,31,17,16,19.20
2016,03,31,17,17,19.20
2016,03,31,17,18,19.10
2016,03,31,17,19,19.10
2016,03,31,17,20,19.10
2016,03,31,17,21,19.00
2016,03,31,17,22,18.90
2016,03,31,17,23,18.80
2016,03,31,17,24,18.70
2016,03,31,17,25,18.60
2016,03,31,17,26,18.50
2016,03,31,17,27,18.40
2016,03,31,17,28,18.40
2016,03,31,17,29,18.40
2016,03,31,17,30,18.50
2016,03,31,17,31,18.50
2016,03,31,17,32,18.60
2016,03,31,17,33,18.60
2016,03,31,17,34,18.70
2016,03,31,17,35,18.70
2016,03,31,17,36,18.70
2016,03,31,17,37,18.70
2016,03,31,17,38,18.60
2016,03,31,17,39,18.50
2016,03,31,17,40,18.30
2016,03,31,17,41,18.10
2016,03,31,17,42,17.90
2016,03,31,17,43,17.80
2016,03,31,17,44,17.80